Time,TemperatureF,DewpointF,PressureIn,WindDirection,WindDirectionDegrees,WindSpeedMPH,WindSpeedGustMPH,Humidity,HourlyPrecipIn,Conditions,Clouds,dailyrainin,SoftwareType,DateUTC
2013-11-29 00:09:00,26.5,21.7,30.49,NW,309,0.0,2.0,82,0.00,,,0.00,Wunderground v.1.15,2013-11-29 06:09:00,
2013-11-29 00:14:00,25.9,21.4,30.50,NW,309,0.0,2.0,83,0.00,,,0.00,Wunderground v.1.15,2013-11-29 06:14:00,
2013-11-29 00:24:00,26.4,22.2,30.50,NW,309,0.0,2.0,84,0.00,,,0.00,Wunderground v.1.15,2013-11-29 06:24:00,
2013-11-29 00:34:00,26.6,21.8,30.49,NW,309,0.0,2.0,82,0.00,,,0.00,Wunderground v.1.15,2013-11-29 06:34:00,
2013-11-29 00:44:00,25.9,22.0,30.49,NW,309,0.0,2.0,85,0.00,,,0.00,Wunderground v.1.15,2013-11-29 06:44:00,
2013-11-29 00:49:00,26.3,22.4,30.49,NNW,328,0.0,2.0,85,0.00,,,0.00,Wunderground v.1.15,2013-11-29 06:49:00,
2013-11-29 00:59:00,26.5,22.0,30.49,NNW,329,0.0,2.0,83,0.00,,,0.00,Wunderground v.1.15,2013-11-29 06:59:00,
2013-11-29 01:09:00,26.9,22.4,30.49,NNW,328,0.0,2.0,83,0.00,,,0.00,Wunderground v.1.15,2013-11-29 07:09:00,
2013-11-29 01:19:00,27.5,22.7,30.49,NNW,336,0.0,2.0,82,0.00,,,0.00,Wunderground v.1.15,2013-11-29 07:19:00,
2013-11-29 01:24:00,28.2,22.8,30.50,North,352,0.0,2.0,80,0.00,,,0.00,Wunderground v.1.15,2013-11-29 07:24:00,
2013-11-29 01:34:00,28.3,22.6,30.50,NNW,327,0.0,2.0,79,0.00,,,0.00,Wunderground v.1.15,2013-11-29 07:34:00,
2013-11-29 01:44:00,28.3,22.3,30.50,NNW,333,0.0,2.0,78,0.00,,,0.00,Wunderground v.1.15,2013-11-29 07:44:00,
2013-11-29 01:54:00,28.3,22.6,30.50,NNW,338,0.0,2.0,79,0.00,,,0.00,Wunderground v.1.15,2013-11-29 07:54:00,
2013-11-29 02:04:00,28.2,22.2,30.50,NW,319,0.0,2.0,78,0.00,,,0.00,Wunderground v.1.15,2013-11-29 08:04:00,
2013-11-29 02:14:00,28.2,22.2,30.51,NW,322,0.0,2.0,78,0.00,,,0.00,Wunderground v.1.15,2013-11-29 08:14:00,
2013-11-29 02:24:00,28.0,22.3,30.51,NW,326,0.0,2.0,79,0.00,,,0.00,Wunderground v.1.15,2013-11-29 08:24:00,
2013-11-29 02:34:00,27.6,21.9,30.51,NNW,335,0.0,2.0,79,0.00,,,0.00,Wunderground v.1.15,2013-11-29 08:34:00,
2013-11-29 02:44:00,27.8,22.1,30.51,North,354,0.0,2.0,79,0.00,,,0.00,Wunderground v.1.15,2013-11-29 08:44:00,
2013-11-29 02:54:00,27.7,22.0,30.51,North,356,0.0,2.0,79,0.00,,,0.00,Wunderground v.1.15,2013-11-29 08:54:00,
2013-11-29 03:04:00,27.7,22.0,30.51,NW,319,0.0,2.0,79,0.00,,,0.00,Wunderground v.1.15,2013-11-29 09:04:00,
2013-11-29 03:14:00,27.6,21.9,30.51,NNW,333,1.0,2.0,79,0.00,,,0.00,Wunderground v.1.15,2013-11-29 09:14:00,
2013-11-29 03:24:00,27.5,21.8,30.51,NNW,345,0.0,2.0,79,0.00,,,0.00,Wunderground v.1.15,2013-11-29 09:24:00,
2013-11-29 03:34:00,27.2,21.5,30.51,NNW,329,0.0,2.0,79,0.00,,,0.00,Wunderground v.1.15,2013-11-29 09:34:00,
2013-11-29 03:44:00,27.1,21.7,30.51,NNW,335,0.0,2.0,80,0.00,,,0.00,Wunderground v.1.15,2013-11-29 09:44:00,
2013-11-29 03:54:00,26.9,21.6,30.51,NNW,339,0.0,2.0,80,0.00,,,0.00,Wunderground v.1.15,2013-11-29 09:54:00,
2013-11-29 04:04:00,26.8,21.8,30.51,North,354,0.0,2.0,81,0.00,,,0.00,Wunderground v.1.15,2013-11-29 10:04:00,
2013-11-29 04:14:00,26.9,21.6,30.51,NNW,342,0.0,2.0,80,0.00,,,0.00,Wunderground v.1.15,2013-11-29 10:14:00,
2013-11-29 04:24:00,26.8,21.5,30.51,NW,316,0.0,2.0,80,0.00,,,0.00,Wunderground v.1.15,2013-11-29 10:24:00,
2013-11-29 04:34:00,26.7,21.7,30.51,NNW,333,0.0,2.0,81,0.00,,,0.00,Wunderground v.1.15,2013-11-29 10:34:00,
2013-11-29 04:44:00,26.7,21.7,30.51,NNW,340,0.0,2.0,81,0.00,,,0.00,Wunderground v.1.15,2013-11-29 10:44:00,
2013-11-29 04:54:00,26.6,21.6,30.51,NNW,345,1.0,2.0,81,0.00,,,0.00,Wunderground v.1.15,2013-11-29 10:54:00,
2013-11-29 05:04:00,26.5,21.5,30.52,NNW,347,0.0,2.0,81,0.00,,,0.00,Wunderground v.1.15,2013-11-29 11:04:00,
2013-11-29 05:14:00,26.5,21.5,30.52,NNE,20,0.0,2.0,81,0.00,,,0.00,Wunderground v.1.15,2013-11-29 11:14:00,
2013-11-29 05:24:00,25.9,21.2,30.52,NNW,333,0.0,2.0,82,0.00,,,0.00,Wunderground v.1.15,2013-11-29 11:24:00,
2013-11-29 05:34:00,25.5,20.8,30.52,NNW,334,0.0,2.0,82,0.00,,,0.00,Wunderground v.1.15,2013-11-29 11:34:00,
2013-11-29 05:44:00,25.3,20.9,30.52,NNW,335,0.0,2.0,83,0.00,,,0.00,Wunderground v.1.15,2013-11-29 11:44:00,
2013-11-29 05:54:00,24.2,19.5,30.52,NNW,335,0.0,2.0,82,0.00,,,0.00,Wunderground v.1.15,2013-11-29 11:54:00,
2013-11-29 06:04:00,-999.9,-99.9,30.53,North,32767,-999.0,2.0,255,-99.99,,,0.00,Wunderground v.1.15,2013-11-29 12:04:00,
2013-11-29 06:14:00,-999.9,-99.9,30.53,North,32767,-999.0,2.0,255,-99.99,,,0.00,Wunderground v.1.15,2013-11-29 12:14:00,
2013-11-29 06:24:00,-999.9,-99.9,30.53,North,32767,-999.0,2.0,255,-99.99,,,0.00,Wunderground v.1.15,2013-11-29 12:24:00,
2013-11-29 06:34:00,-999.9,-99.9,30.53,North,32767,-999.0,2.0,255,-99.99,,,0.00,Wunderground v.1.15,2013-11-29 12:34:00,
2013-11-29 06:44:00,-999.9,-99.9,30.53,North,32767,-999.0,2.0,255,-99.99,,,0.00,Wunderground v.1.15,2013-11-29 12:44:00,
2013-11-29 06:54:00,-999.9,-99.9,30.52,North,32767,-999.0,2.0,255,-99.99,,,0.00,Wunderground v.1.15,2013-11-29 12:54:00,
2013-11-29 07:04:00,-999.9,-99.9,30.52,North,32767,-999.0,2.0,255,-99.99,,,0.00,Wunderground v.1.15,2013-11-29 13:04:00,
2013-11-29 07:14:00,-999.9,-99.9,30.52,North,32767,-999.0,2.0,255,-99.99,,,0.00,Wunderground v.1.15,2013-11-29 13:14:00,
2013-11-29 07:24:00,-999.9,-99.9,30.52,North,32767,-999.0,2.0,255,-99.99,,,0.00,Wunderground v.1.15,2013-11-29 13:24:00,
2013-11-29 07:34:00,-999.9,-99.9,30.53,North,32767,-999.0,2.0,255,-99.99,,,0.00,Wunderground v.1.15,2013-11-29 13:34:00,
2013-11-29 07:44:00,-999.9,-99.9,30.53,North,32767,-999.0,2.0,255,-99.99,,,0.00,Wunderground v.1.15,2013-11-29 13:44:00,
2013-11-29 07:54:00,-999.9,-99.9,30.53,North,32767,-999.0,2.0,255,-99.99,,,0.00,Wunderground v.1.15,2013-11-29 13:54:00,
2013-11-29 08:04:00,30.8,23.5,30.52,NNE,22,0.0,2.0,74,0.00,,,0.00,Wunderground v.1.15,2013-11-29 14:04:00,
2013-11-29 08:14:00,31.6,23.9,30.52,NE,53,0.0,2.0,73,0.00,,,0.00,Wunderground v.1.15,2013-11-29 14:14:00,
2013-11-29 08:24:00,32.8,24.8,30.53,NE,53,0.0,2.0,72,0.00,,,0.00,Wunderground v.1.15,2013-11-29 14:24:00,
2013-11-29 08:34:00,33.4,24.3,30.53,NNE,13,1.0,2.0,69,0.00,,,0.00,Wunderground v.1.15,2013-11-29 14:34:00,
2013-11-29 08:44:00,34.1,24.3,30.53,NNE,33,1.0,2.0,67,0.00,,,0.00,Wunderground v.1.15,2013-11-29 14:44:00,
2013-11-29 08:54:00,34.8,25.0,30.53,ESE,108,1.0,2.0,67,0.00,,,0.00,Wunderground v.1.15,2013-11-29 14:54:00,
2013-11-29 08:59:00,35.1,25.2,30.53,North,3,1.0,1.0,67,0.00,,,0.00,Wunderground v.1.15,2013-11-29 14:59:00,
2013-11-29 09:09:00,35.8,25.5,30.54,NNE,28,2.0,2.0,66,0.00,,,0.00,Wunderground v.1.15,2013-11-29 15:09:00,
2013-11-29 09:19:00,37.0,25.9,30.53,ENE,77,2.0,3.0,64,0.00,,,0.00,Wunderground v.1.15,2013-11-29 15:19:00,
2013-11-29 09:29:00,38.4,26.5,30.54,NNE,31,1.0,2.0,62,0.00,,,0.00,Wunderground v.1.15,2013-11-29 15:29:00,
2013-11-29 09:34:00,38.9,26.6,30.53,East,99,1.0,2.0,61,0.00,,,0.00,Wunderground v.1.15,2013-11-29 15:34:00,
2013-11-29 09:44:00,39.8,26.6,30.53,NNE,15,2.0,2.0,59,0.00,,,0.00,Wunderground v.1.15,2013-11-29 15:44:00,
2013-11-29 09:54:00,41.7,27.6,30.53,East,98,1.0,2.0,57,0.00,,,0.00,Wunderground v.1.15,2013-11-29 15:54:00,
2013-11-29 10:04:00,42.5,27.0,30.53,NE,49,2.0,2.0,54,0.00,,,0.00,Wunderground v.1.15,2013-11-29 16:04:00,
2013-11-29 10:14:00,42.8,27.3,30.53,SSE,152,2.0,2.0,54,0.00,,,0.00,Wunderground v.1.15,2013-11-29 16:14:00,
2013-11-29 10:24:00,43.2,27.7,30.53,ENE,59,3.0,3.0,54,0.00,,,0.00,Wunderground v.1.15,2013-11-29 16:24:00,
2013-11-29 10:34:00,44.7,28.6,30.52,NE,47,1.0,2.0,53,0.00,,,0.00,Wunderground v.1.15,2013-11-29 16:34:00,
2013-11-29 10:44:00,45.4,28.8,30.52,ENE,69,1.0,2.0,52,0.00,,,0.00,Wunderground v.1.15,2013-11-29 16:44:00,
2013-11-29 10:54:00,47.0,29.8,30.52,SE,145,1.0,2.0,51,0.00,,,0.00,Wunderground v.1.15,2013-11-29 16:54:00,
2013-11-29 11:04:00,47.6,28.9,30.51,SSE,165,1.0,2.0,48,0.00,,,0.00,Wunderground v.1.15,2013-11-29 17:04:00,
2013-11-29 11:14:00,47.7,28.9,30.50,ESE,104,2.0,3.0,48,0.00,,,0.00,Wunderground v.1.15,2013-11-29 17:14:00,
2013-11-29 11:24:00,49.3,29.4,30.50,ESE,120,1.0,2.0,46,0.00,,,0.00,Wunderground v.1.15,2013-11-29 17:24:00,
2013-11-29 11:29:00,49.0,28.6,30.50,WSW,256,1.0,2.0,45,0.00,,,0.00,Wunderground v.1.15,2013-11-29 17:29:00,
2013-11-29 11:39:00,49.7,29.2,30.49,NNE,17,2.0,2.0,45,0.00,,,0.00,Wunderground v.1.15,2013-11-29 17:39:00,
2013-11-29 11:49:00,50.4,29.3,30.48,East,87,2.0,3.0,44,0.00,,,0.00,Wunderground v.1.15,2013-11-29 17:49:00,
2013-11-29 11:59:00,50.9,29.2,30.48,SE,132,1.0,1.0,43,0.00,,,0.00,Wunderground v.1.15,2013-11-29 17:59:00,
2013-11-29 12:04:00,52.0,29.6,30.47,East,99,1.0,2.0,42,0.00,,,0.00,Wunderground v.1.15,2013-11-29 18:04:00,
2013-11-29 12:14:00,52.6,30.1,30.47,East,85,2.0,2.0,42,0.00,,,0.00,Wunderground v.1.15,2013-11-29 18:14:00,
2013-11-29 12:24:00,53.2,30.1,30.46,SSW,199,1.0,2.0,41,0.00,,,0.00,Wunderground v.1.15,2013-11-29 18:24:00,
2013-11-29 12:34:00,54.7,29.6,30.46,ESE,115,0.0,4.0,38,0.00,,,0.00,Wunderground v.1.15,2013-11-29 18:34:00,
2013-11-29 12:44:00,53.7,28.7,30.45,ESE,110,2.0,2.0,38,0.00,,,0.00,Wunderground v.1.15,2013-11-29 18:44:00,
2013-11-29 12:54:00,54.1,28.4,30.45,SE,125,2.0,5.0,37,0.00,,,0.00,Wunderground v.1.15,2013-11-29 18:54:00,
2013-11-29 13:04:00,53.4,29.0,30.44,NNE,33,2.0,2.0,39,0.00,,,0.00,Wunderground v.1.15,2013-11-29 19:04:00,
2013-11-29 13:14:00,54.1,29.7,30.44,ESE,107,2.0,2.0,39,0.00,,,0.00,Wunderground v.1.15,2013-11-29 19:14:00,
2013-11-29 13:24:00,54.5,29.4,30.43,NE,40,1.0,2.0,38,0.00,,,0.00,Wunderground v.1.15,2013-11-29 19:24:00,
2013-11-29 13:34:00,55.6,29.7,30.42,ENE,60,2.0,2.0,37,0.00,,,0.00,Wunderground v.1.15,2013-11-29 19:34:00,
2013-11-29 13:44:00,55.8,29.9,30.42,East,79,1.0,3.0,37,0.00,,,0.00,Wunderground v.1.15,2013-11-29 19:44:00,
2013-11-29 13:54:00,56.4,29.7,30.41,ENE,74,1.0,2.0,36,0.00,,,0.00,Wunderground v.1.15,2013-11-29 19:54:00,
2013-11-29 14:04:00,56.5,29.8,30.40,ENE,69,1.0,2.0,36,0.00,,,0.00,Wunderground v.1.15,2013-11-29 20:04:00,
2013-11-29 14:14:00,57.1,29.7,30.40,NNE,18,1.0,2.0,35,0.00,,,0.00,Wunderground v.1.15,2013-11-29 20:14:00,
2013-11-29 14:24:00,56.2,30.2,30.39,NNE,27,2.0,3.0,37,0.00,,,0.00,Wunderground v.1.15,2013-11-29 20:24:00,
2013-11-29 14:34:00,56.2,30.2,30.39,East,83,2.0,3.0,37,0.00,,,0.00,Wunderground v.1.15,2013-11-29 20:34:00,
2013-11-29 14:44:00,55.5,29.6,30.39,NNE,26,2.0,8.0,37,0.00,,,0.00,Wunderground v.1.15,2013-11-29 20:44:00,
2013-11-29 14:54:00,55.6,30.4,30.38,NW,326,3.0,4.0,38,0.00,,,0.00,Wunderground v.1.15,2013-11-29 20:54:00,
2013-11-29 15:04:00,55.3,30.1,30.38,NNE,26,3.0,3.0,38,0.00,,,0.00,Wunderground v.1.15,2013-11-29 21:04:00,
2013-11-29 15:14:00,55.2,30.7,30.38,NE,46,2.0,4.0,39,0.00,,,0.00,Wunderground v.1.15,2013-11-29 21:14:00,
2013-11-29 15:24:00,55.1,30.6,30.37,NE,43,2.0,2.0,39,0.00,,,0.00,Wunderground v.1.15,2013-11-29 21:24:00,
2013-11-29 15:34:00,54.9,31.0,30.37,SE,127,3.0,3.0,40,0.00,,,0.00,Wunderground v.1.15,2013-11-29 21:34:00,
2013-11-29 15:44:00,55.2,30.7,30.36,ESE,120,2.0,2.0,39,0.00,,,0.00,Wunderground v.1.15,2013-11-29 21:44:00,
2013-11-29 15:54:00,54.9,31.0,30.36,SE,141,2.0,2.0,40,0.00,,,0.00,Wunderground v.1.15,2013-11-29 21:54:00,
2013-11-29 16:04:00,54.6,30.7,30.36,NE,47,2.0,3.0,40,0.00,,,0.00,Wunderground v.1.15,2013-11-29 22:04:00,
2013-11-29 16:14:00,53.7,30.5,30.36,NNE,21,3.0,3.0,41,0.00,,,0.00,Wunderground v.1.15,2013-11-29 22:14:00,
2013-11-29 16:24:00,53.1,30.6,30.36,ENE,71,1.0,2.0,42,0.00,,,0.00,Wunderground v.1.15,2013-11-29 22:24:00,
2013-11-29 16:34:00,52.6,30.7,30.35,NE,44,1.0,2.0,43,0.00,,,0.00,Wunderground v.1.15,2013-11-29 22:34:00,
2013-11-29 16:44:00,51.9,30.6,30.35,NE,46,0.0,2.0,44,0.00,,,0.00,Wunderground v.1.15,2013-11-29 22:44:00,
2013-11-29 16:49:00,51.6,30.9,30.35,ENE,70,0.0,2.0,45,0.00,,,0.00,Wunderground v.1.15,2013-11-29 22:49:00,
2013-11-29 16:59:00,50.9,30.8,30.35,ENE,65,0.0,2.0,46,0.00,,,0.00,Wunderground v.1.15,2013-11-29 22:59:00,
2013-11-29 17:04:00,50.5,30.5,30.35,ENE,73,0.0,2.0,46,0.00,,,0.00,Wunderground v.1.15,2013-11-29 23:04:00,
2013-11-29 17:14:00,49.2,30.3,30.35,East,84,0.0,2.0,48,0.00,,,0.00,Wunderground v.1.15,2013-11-29 23:14:00,
2013-11-29 17:24:00,48.3,30.5,30.35,East,92,0.0,2.0,50,0.00,,,0.00,Wunderground v.1.15,2013-11-29 23:24:00,
2013-11-29 17:34:00,47.9,30.1,30.35,ESE,107,0.0,2.0,50,0.00,,,0.00,Wunderground v.1.15,2013-11-29 23:34:00,
2013-11-29 17:44:00,47.5,29.8,30.35,NNE,31,0.0,2.0,50,0.00,,,0.00,Wunderground v.1.15,2013-11-29 23:44:00,
2013-11-29 17:54:00,47.4,29.7,30.35,SE,128,0.0,2.0,50,0.00,,,0.00,Wunderground v.1.15,2013-11-29 23:54:00,
2013-11-29 18:04:00,47.5,29.8,30.35,NNE,28,0.0,2.0,50,0.00,,,0.00,Wunderground v.1.15,2013-11-30 00:04:00,
2013-11-29 18:14:00,47.3,29.6,30.35,East,80,0.0,2.0,50,0.00,,,0.00,Wunderground v.1.15,2013-11-30 00:14:00,
2013-11-29 18:24:00,47.4,29.7,30.35,ESE,113,1.0,2.0,50,0.00,,,0.00,Wunderground v.1.15,2013-11-30 00:24:00,
2013-11-29 18:34:00,47.2,29.5,30.35,NE,52,0.0,2.0,50,0.00,,,0.00,Wunderground v.1.15,2013-11-30 00:34:00,
2013-11-29 18:44:00,46.7,29.5,30.35,ESE,108,0.0,2.0,51,0.00,,,0.00,Wunderground v.1.15,2013-11-30 00:44:00,
2013-11-29 18:54:00,46.2,29.5,30.35,ENE,63,0.0,2.0,52,0.00,,,0.00,Wunderground v.1.15,2013-11-30 00:54:00,
2013-11-29 19:04:00,46.5,29.8,30.34,ESE,120,1.0,2.0,52,0.00,,,0.00,Wunderground v.1.15,2013-11-30 01:04:00,
2013-11-29 19:14:00,46.3,29.6,30.35,ESE,116,1.0,3.0,52,0.00,,,0.00,Wunderground v.1.15,2013-11-30 01:14:00,
2013-11-29 19:24:00,46.0,29.3,30.34,ESE,107,1.0,2.0,52,0.00,,,0.00,Wunderground v.1.15,2013-11-30 01:24:00,
2013-11-29 19:34:00,45.8,29.6,30.34,ESE,113,1.0,2.0,53,0.00,,,0.00,Wunderground v.1.15,2013-11-30 01:34:00,
2013-11-29 19:39:00,45.7,29.5,30.34,NE,48,1.0,1.0,53,0.00,,,0.00,Wunderground v.1.15,2013-11-30 01:39:00,
2013-11-29 19:49:00,45.2,29.5,30.33,NE,51,1.0,2.0,54,0.00,,,0.00,Wunderground v.1.15,2013-11-30 01:49:00,
2013-11-29 19:59:00,44.8,29.6,30.33,East,101,0.0,2.0,55,0.00,,,0.00,Wunderground v.1.15,2013-11-30 01:59:00,
2013-11-29 20:09:00,44.6,29.9,30.33,ESE,117,1.0,4.0,56,0.00,,,0.00,Wunderground v.1.15,2013-11-30 02:09:00,
2013-11-29 20:14:00,44.7,30.0,30.32,ENE,68,1.0,4.0,56,0.00,,,0.00,Wunderground v.1.15,2013-11-30 02:14:00,
2013-11-29 20:24:00,44.4,29.7,30.32,East,88,1.0,2.0,56,0.00,,,0.00,Wunderground v.1.15,2013-11-30 02:24:00,
2013-11-29 20:34:00,44.1,29.8,30.32,SW,228,1.0,2.0,57,0.00,,,0.00,Wunderground v.1.15,2013-11-30 02:34:00,
2013-11-29 20:44:00,44.2,29.9,30.32,NE,40,2.0,2.0,57,0.00,,,0.00,Wunderground v.1.15,2013-11-30 02:44:00,
2013-11-29 20:54:00,44.3,30.0,30.32,NNE,20,2.0,2.0,57,0.00,,,0.00,Wunderground v.1.15,2013-11-30 02:54:00,
2013-11-29 21:04:00,44.1,29.8,30.32,East,96,2.0,3.0,57,0.00,,,0.00,Wunderground v.1.15,2013-11-30 03:04:00,
2013-11-29 21:14:00,43.7,29.9,30.32,ESE,114,2.0,2.0,58,0.00,,,0.00,Wunderground v.1.15,2013-11-30 03:14:00,
2013-11-29 21:24:00,43.3,29.9,30.33,ESE,103,1.0,2.0,59,0.00,,,0.00,Wunderground v.1.15,2013-11-30 03:24:00,
2013-11-29 21:34:00,42.9,30.0,30.34,ESE,105,1.0,2.0,60,0.00,,,0.00,Wunderground v.1.15,2013-11-30 03:34:00,
2013-11-29 21:44:00,42.7,30.2,30.33,ESE,107,1.0,3.0,61,0.00,,,0.00,Wunderground v.1.15,2013-11-30 03:44:00,
2013-11-29 21:54:00,42.2,29.7,30.34,ESE,108,1.0,2.0,61,0.00,,,0.00,Wunderground v.1.15,2013-11-30 03:54:00,
2013-11-29 22:04:00,41.9,29.8,30.33,ESE,104,1.0,2.0,62,0.00,,,0.00,Wunderground v.1.15,2013-11-30 04:04:00,
2013-11-29 22:09:00,41.8,30.1,30.33,ESE,111,0.0,2.0,63,0.00,,,0.00,Wunderground v.1.15,2013-11-30 04:09:00,
2013-11-29 22:19:00,41.3,30.0,30.33,SE,129,0.0,2.0,64,0.00,,,0.00,Wunderground v.1.15,2013-11-30 04:19:00,
2013-11-29 22:29:00,41.0,29.7,30.34,East,92,1.0,1.0,64,0.00,,,0.00,Wunderground v.1.15,2013-11-30 04:29:00,
2013-11-29 22:39:00,41.0,30.1,30.34,ESE,113,0.0,2.0,65,0.00,,,0.00,Wunderground v.1.15,2013-11-30 04:39:00,
2013-11-29 22:44:00,40.9,30.0,30.34,ESE,111,0.0,2.0,65,0.00,,,0.00,Wunderground v.1.15,2013-11-30 04:44:00,
2013-11-29 22:54:00,40.5,30.0,30.33,East,97,0.0,2.0,66,0.00,,,0.00,Wunderground v.1.15,2013-11-30 04:54:00,
2013-11-29 23:04:00,40.6,30.1,30.33,ESE,114,1.0,2.0,66,0.00,,,0.00,Wunderground v.1.15,2013-11-30 05:04:00,
2013-11-29 23:09:00,40.4,29.9,30.33,ESE,108,0.0,2.0,66,0.00,,,0.00,Wunderground v.1.15,2013-11-30 05:09:00,
2013-11-29 23:14:00,40.3,30.2,30.34,ESE,114,0.0,2.0,67,0.00,,,0.00,Wunderground v.1.15,2013-11-30 05:14:00,
2013-11-29 23:19:00,39.9,29.8,30.33,ESE,107,0.0,2.0,67,0.00,,,0.00,Wunderground v.1.15,2013-11-30 05:19:00,
2013-11-29 23:24:00,39.9,30.2,30.33,ESE,104,0.0,2.0,68,0.00,,,0.00,Wunderground v.1.15,2013-11-30 05:24:00,
2013-11-29 23:29:00,39.7,30.0,30.33,SE,134,0.0,2.0,68,0.00,,,0.00,Wunderground v.1.15,2013-11-30 05:29:00,
2013-11-29 23:34:00,39.4,30.1,30.34,SE,127,0.0,2.0,69,0.00,,,0.00,Wunderground v.1.15,2013-11-30 05:34:00,
2013-11-29 23:44:00,39.2,30.2,30.33,ESE,112,0.0,2.0,70,0.00,,,0.00,Wunderground v.1.15,2013-11-30 05:44:00,
2013-11-29 23:54:00,38.6,30.0,30.33,ESE,118,0.0,2.0,71,0.00,,,0.00,Wunderground v.1.15,2013-11-30 05:54:00,